www.pogodaiklimat.ru
Время
(UTC), дата
21 13.01
00 14.01
03 14.01
06 14.01
09 14.01
12 14.01
15 14.01
18 14.01
21 14.01
00 15.01
03 15.01
06 15.01
09 15.01
12 15.01
15 15.01
18 15.01
21 15.01
00 16.01
03 16.01
06 16.01
09 16.01
12 16.01
15 16.01
18 16.01
21 16.01
00 17.01
03 17.01
06 17.01
09 17.01
12 17.01
15 17.01
18 17.01
21 17.01
00 18.01
03 18.01
06 18.01
09 18.01
12 18.01
15 18.01
18 18.01
21 18.01
00 19.01
03 19.01
06 19.01
09 19.01
12 19.01
15 19.01
18 19.01
21 19.01
00 20.01
03 20.01
06 20.01
09 20.01
12 20.01
15 20.01
18 20.01
Ветер
(напр.,м/с)
Видим. Явления Облачность Т
(С)
Тd
(С)
f
(%)
Тe
(С)
Тes
(С)
Комфортность P
(гПа)
Po
(гПа)
Тmin
(С)
Tmax
(С)
R
(мм)
R24
(мм)
S
(см)
СЗ 2-3
{4}
4000 м ясно -9.3 -15.6 60 -14 -14 прохладно 1012.2 1009.1 -10.6 0.5 81
З 2-4
{6}
50 км ясно -7.0 -17.7 42 -11 -9 по сезону 1012.3 1009.2
З 2-2
{4}
50 км 8/0
[Ci fib]
-5.9 -15.5 47 -10 -8 по сезону 1011.4 1008.3
З 2-3
{3}
20 км 10/0
[Ac As]
-6.7 -16.0 48 -11 -11 по сезону 1011.2 1008.1
ЮЗ 3-4
{6}
4000 м 8/8 1000 м
[Sc]
-5.3 -12.3 58 -10 -10 по сезону 1010.6 1007.5 -5.3
ЮЗ 3-5
{5}
4000 м 10/10 600 м
[Cb cap]
-4.8 -10.9 62 -10 -10 по сезону 1009.3 1006.2
ЮЗ 3-5
{6}
4000 м в посл. час ливневой снег 8/8 600 м
[Cb cap]
-4.7 -10.0 66 -10 -10 по сезону 1007.4 1004.4
ЮВ 6-9
{10}
4000 м {ливн. снег} 9/9 600 м
[Cb cap]
-3.3 -9.9 60 -10 -10 по сезону 1005.9 1002.9
ЮВ 4-10
{10}
4000 м слаб. ливневой снег 10/10 600 м
[Cb cap]
-3.9 -8.1 73 -10 -10 по сезону 1005.6 1002.6 -5.8 0.4 79
В 7-10
{10}
10 км слаб. ливневой снег 10/10 600 м
[Cb cap]
-3.6 -8.7 68 -11 -11 по сезону 1006.0 1002.9
В 2-3
{11}
20 км в посл. час ливневой снег 10/10 600 м
[Cb cap]
-3.4 -9.5 63 -7 -7 по сезону 1005.6 1002.6
СВ 2-4
{7}
10 км слаб. ливневой снег 10/10 600 м
[Cb cap]
-3.4 -9.5 63 -7 -7 по сезону 1007.3 1004.3
С 2-3
{8}
4000 м {ливн. снег} 10/8 1000 м
[Cu Sc Ci fib]
-3.6 -8.7 68 -7 -7 по сезону 1009.3 1006.2 -3.1 0.2
З 2-3
{4}
4000 м {ливн. снег} 10/10 600 м
[Cb cap]
-3.6 -9.9 62 -7 -7 по сезону 1011.0 1007.9
СЗ 1-1
{5}
4000 м 10/10 600 м
[Cb cap]
-4.3 -9.5 67 -6 -6 по сезону 1011.7 1008.6
З 1-2
{2}
4000 м в посл. час ливневой снег 10/10 600 м
[Cb cap]
-3.6 -7.4 75 -6 -6 по сезону 1012.6 1009.5
Ю 1-2
{4}
4000 м слаб. ливневой снег 9/9 600 м
[Cb cap]
-3.2 -6.7 77 -5 -5 по сезону 1012.7 1009.6 -5.0 0.3 76
ЮЗ 1-7
{7}
20 км в посл. час ливневой снег 6/6 1000 м
[Cb cap]
-1.7 -4.5 81 -4 -3 по сезону 1012.2 1009.1
ЮЗ 5-8
{12}
4000 м слаб. ливневой снег {метель} 9/9 600 м
[Cb cap]
-1.6 -7.9 62 -8 -8 по сезону 1011.4 1008.5
З 5-9
{14}
4000 м слаб. ливневой снег {метель} 9/9 600 м
[Cb cap]
-2.1 -9.2 58 -8 -8 по сезону 1012.1 1009.0
З 3-5
{10}
4000 м {ливн. снег} 9/9 600 м
[Cb cap]
-2.9 -10.4 56 -8 -8 по сезону 1012.7 1009.6 -0.5 3
Ю 3-3
{5}
4000 м {ливн. снег} 10/10 600 м
[Cb cap]
-5.3 -10.9 65 -11 -11 по сезону 1011.3 1008.2
З 1-1
{4}
4000 м слаб. снег 10/10 300 м
[Frnb Ns]
-4.8 -8.7 74 -7 -7 по сезону 1008.8 1005.7
штиль 0
{3}
2000 м снег 10/10 300 м
[Frnb Ns]
-4.4 -5.6 91 -6 -6 по сезону 1004.0 1001.0
СВ 7-10
{11}
1000 м сильн. снег 10/10 300 м
[Frnb Ns]
-2.0 -2.8 94 -10 -10 по сезону 997.8 994.8 -5.7 6 84
В 7-11
{14}
2000 м снег 10/10 300 м
[Frnb Ns]
-0.2 -1.0 94 -8 -8 по сезону 990.7 987.7
штиль 0-2
{11}
2000 м дымка {снег} 10/8 200 м
[St As op]
+1.1 +0.5 96 -0 -0 тепло 986.0 983.0
СВ 2-7
{5}
4000 м туман местами {снег} 9/6 600 м
[Cb cap Ac trans Cc]
+0.1 -0.5 96 -4 -4 по сезону 983.9 980.9
С 10-18
{21}
1000 м ливневой снег {метель} 10/10 600 м
[Cb cap]
-2.3 -4.0 88 -11 -11 по сезону 985.6 982.6 +1.7 4
С 15-30
{28}
500 м ливневой снег {метель} 10/10 300 м
[Cb cap]
-3.5 -4.5 93 -14 -14 прохладно 987.6 984.6
С 14-26
{30}
2000 м слаб. ливневой снег {метель} 10/10 600 м
[Cb cap]
-5.2 -8.6 77 -16 -16 холодно 990.8 987.7
СЗ 8-17
{26}
2000 м слаб. ливневой снег {метель} 10/10 600 м
[Cb cap]
-5.9 -9.9 73 -15 -15 холодно 994.1 991.0
С 5-14
{19}
4000 м слаб. ливневой снег {метель} 9/9 600 м
[Cb cap]
-7.3 -11.4 72 -15 -15 холодно 995.7 992.6 -7.4 4 78
СЗ 5-9
{15}
4000 м слаб. ливневой снег {метель} 9/9 600 м
[Cb cap]
-7.9 -11.3 77 -15 -15 холодно 996.2 993.2 -7.9
СЗ 6-12
{15}
4000 м слаб. ливневой снег {метель} 10/10 600 м
[Cb cap]
-6.7 -11.8 67 -15 -15 холодно 994.6 991.6
СЗ 9-16
{20}
2000 м ливневой снег {метель} 9/9 600 м
[Cb cap]
-5.7 -10.0 72 -15 -15 холодно 994.6 991.6
СЗ 13-23
{26}
500 м ливневой снег {метель} 10/10 600 м
[Cb cap]
-7.3 -9.6 84 -19 -19 очень
холодно
994.2 991.2 -5.3 4
СЗ 6-15
{23}
1000 м ливневой снег {метель} 10/10 600 м
[Cb cap]
-5.8 -9.7 74 -14 -14 холодно 996.2 993.2
СЗ 9-17
{20}
1000 м ливневой снег {метель} 9/9 600 м
[Cb cap]
-6.9 -10.2 77 -16 -16 холодно 996.9 993.8
СЗ 12-24
{23}
500 м ливневой снег {метель} 10/10 600 м
[Cb cap]
-8.2 -11.0 80 -19 -19 очень
холодно
995.5 992.4
СЗ 8-12
{24}
2000 м слаб. ливневой снег {метель} 9/9 600 м
[Cb cap]
-7.3 -15.1 54 -16 -16 очень
холодно
999.3 996.2 -8.3 9 74
СЗ 5-9
{17}
4000 м слаб. ливневой снег {метель} 10/10 600 м
[Cb cap]
-7.3 -14.2 58 -14 -14 холодно 1000.9 997.8
СЗ 7-10
{17}
4000 м слаб. ливневой снег {метель} 10/10 600 м
[Cb cap]
-7.0 -17.3 44 -15 -15 холодно 1000.6 997.6
СЗ 3-11
{13}
4000 м слаб. ливневой снег {метель} 10/10 600 м
[Cb cap]
-7.9 -15.9 53 -13 -13 холодно 1000.6 997.5
СЗ 7-14
{14}
4000 м слаб. ливневой снег {метель} 9/9 600 м
[Cb cap]
-8.6 -17.7 48 -17 -17 очень
холодно
1000.9 997.8 -6.6 4
СЗ 6-8
{15}
4000 м слаб. ливневой снег {метель} 10/10 600 м
[Cb cap]
-9.4 -15.5 61 -18 -18 очень
холодно
1001.3 998.2
З 5-10
{13}
4000 м в посл. час ливневой снег {метель} 10/10 600 м
[Cb cap]
-10.0 -17.9 52 -18 -18 очень
холодно
1001.3 998.2
СЗ 5-14
{13}
4000 м слаб. ливневой снег {метель} 10/10 600 м
[Cb cap]
-10.1 -17.7 54 -18 -18 очень
холодно
1000.9 997.8
З 6-14
{14}
500 м ливневой снег {метель} 10/10 600 м
[Cb cap]
-11.3 -14.4 78 -20 -20 очень
холодно
1000.2 997.1 -11.3 2 76
З 4-9
{16}
20 км в посл. час ливневой снег {метель} 9/9 600 м
[Cb cap]
-10.3 -17.3 56 -17 -17 холодно 1000.9 997.7
З 5-9
{14}
10 км позёмок {ливн. снег} 8/5 600 м
[Cb cap Ci fib]
-10.1 -15.1 67 -18 -17 очень
холодно
999.2 996.1
З 5-10
{13}
10 км позёмок {ливн. снег} 6/5 600 м
[Cb cap Ci fib]
-9.9 -19.5 45 -17 -17 холодно 998.8 995.7
З 6-11
{16}
500 м ливневой снег {метель} 10/10 600 м
[Cb cap]
-9.1 -12.4 77 -17 -17 холодно 998.6 995.5 -8.9 1
З 11-19
{21}
200 м ливневой снег {метель} 10/10 600 м
[Cb cap]
-8.6 -10.8 84 -19 -19 очень
холодно
994.1 991.0
С 6-11
{21}
2000 м слаб. ливневой снег {метель} 10/10 600 м
[Cb cap]
-5.3 -7.8 83 -13 -13 по сезону 994.7 991.6
С 10-16
{19}
1000 м ливневой снег {метель} 10/10 600 м
[Cb cap]
-6.2 -9.6 77 -16 -16 холодно 996.7 993.7
Местоположение метеостанции Северо-Курильск (Сахалинская область, Россия): широта 50.68 долгота 156.10 высота над уровнем моря 23 м.
В архиве по умолчанию представлена погода в Северо-Курильске за последнюю неделю. Архивные данные за месяц целиком и за предыдущие месяцы, начиная с января 2011 года, Вы можете получить, выбрав интересующий диапазон дат из раскрывающегося списка и нажав кнопку "Найти!".
*Определитесь, кто Вы:
Внимание! Время в таблицах - всемирное. Для получения местного времени необходимо прибавить поправку, которая равна 12 ч.
Смотрите также архив погоды в соседних городах и на ближайших метеорологических станциях:
Партнеры нашего сайта:      
Пояснения к столбцам:
  • Ветер - указаны скорость ветра в м/с - средняя за 10 мин, порывы в срок и между сроками (в фигурных скобках) и направление, откуда дует ветер: С - северный,
  • СВ - северо-восточный, В - восточный, ЮВ - юго-восточный, Ю - южный, ЮЗ - юго-западный, З - западный, СЗ - северо-западный.
  • Видимость - горизонтальная дальность видимости в метрах или километрах. При видимости от 1 до 10 км при отсутствии осадков обычно наблюдается дымка, при ухудшении видимости до 1 км и менее - туман. В сухую погоду видимость может ухудшаться дымом, пылью или мглою.
  • Явления - указаны атмосферные явления, наблюдавшиеся в срок или в последний час перед сроком; фигурными скобками обозначены явления, наблюдавшиеся между сроками (за 1-3 часа до срока); квадратными скобками обозначены град или гололедные отложения с указанием их диаметра в мм.
  • Облачность - указаны через наклонную черту общая и нижняя облачность в баллах и высота нижней границы облаков в метрах; квадратными скобками обозначены формы облаков: Ci - перистые, Cs - перисто-слоистые, Cc - перисто-кучевые, Ac - высококучевые, As - высокослоистые, Sc - слоисто-кучевые, Ns - слоисто-дождевые, Cu - кучевые, Cb - кучево-дождевые. Подробнее классификацию облаков см. в Атласе облаков (PDF).
  • T - Температура воздуха - температура, измеренная на высоте 2 м над землей.
  • Td - Температура точки росы - температура, при понижении до которой содержащийся в воздухе водяной пар достигнет насыщения.
  • f - Относительная влажность воздуха - влажноcть воздуха, измеренная на высоте 2 м над землей.
  • Te - Эффективная температура - температура, которую ощущает одетый по сезону человек в тени. Характеристика душности погоды. При расчете учитывается влияние влажности воздуха и скорости ветра на теплоощущения человека.
  • Tes - Эффективная температура на солнце - температура, которую ощущает человек, с поправкой на солнечный нагрев. Характеристика знойности погоды. Зависит от высоты солнца над горизонтом, облачности и скорости ветра. Ночью, в пасмурную погоду, а также при ветре 12 м/с и более поправка равна нулю.
  • P - Атмосферное давление - приведенное к уровню моря атмосферное давление.
  • Po - Атмосферное давление - измеренное на уровне метеостанции атмосферное давление.
  • Tmin - Минимальная температура - минимум температуры воздуха на высоте 2 м над землей.
  • Tmax - Максимальная температура - максимум температуры воздуха на высоте 2 м над землей.
  • R - Количество осадков - Количество выпавших осадков за период времени, мм. При наведении курсора мыши на число - период времени, за который выпало указанное количество осадков.
  • R24 - Количество осадков - Количество выпавших осадков за 24 часа, мм.
  • S - Снежный покров - Высота снежного покрова, см. При наведении курсора мыши на число - состояние снежного покрова и степень покрытия местности в баллах.